Flag for United Kingdom Weather past 2 weeks in Wakefield, England, United Kingdom

Now
43 °F

Clear.


Feels Like: 39 °F
Forecast: 46 / 65 °F
Wind: 6 mph from West

Location: Leeds And Bradford

Current Time: Sep 22, 2014 at 1:51:28 AM

Latest Report: Sep 22, 2014 at 12:50 AM


Visibility: 10 mi

Pressure: 30.33 "Hg

Humidity: 100%

Dew point: 43 °F

Location of WakefieldLocation

Historic Weather in Wakefield — Graph

°F

Wakefield temperature yesterday

Maximum temperature yesterday: 57 °F (at 1:20 PM)
Minimum temperature yesterday: 45 °F (at 11:20 PM)
Average temperature yesterday: 51 °F

Past Weeks' High & Low Weather Summary

 TemperatureHumidityPressure
High66 °F (Sep 18, 4:50 PM)100% (Sep 7, 12:20 AM)30.39 "Hg (Sep 7, 12:20 AM)
Low45 °F (Sep 7, 6:20 AM)49% (Sep 7, 2:50 PM)29.89 "Hg (Sep 18, 3:50 AM)
Average55 °F89%30.13 "Hg
* Reported Sep 7 12:20 AM — Sep 22 12:20 AM, Wakefield, Weather by CustomWeather, © 2014

Note: Actual official high and low records may vary slightly from our data, if they occured in-between our weather recording intervals... More about our weather records

Advertising

Wakefield weather history for previous 24 hours

 ConditionsComfort  
Time TempWeatherWind HumidityBarometerVisibility
12:20 AM
Sep 22
45 °FClear.6 mph93%30.33 "Hg10 mi
11:50 PM
Sep 21
45 °FClear.5 mph93%30.33 "Hg10 mi
11:20 PM45 °FClear.6 mph93%30.33 "Hg10 mi
10:50 PM46 °FPassing clouds.5 mph87%30.33 "HgN/A
10:20 PM46 °FClear.2 mph87%30.33 "Hg10 mi
9:20 PM46 °FPassing clouds.2 mph93%30.33 "HgN/A
8:50 PM48 °FPassing clouds.2 mph87%30.33 "HgN/A
8:20 PM48 °FPassing clouds.1 mph94%30.33 "HgN/A
7:50 PM50 °FPassing clouds.1 mph88%30.33 "HgN/A
7:20 PM50 °FPassing clouds.3 mph88%30.33 "HgN/A
6:50 PM52 °FPassing clouds.5 mph82%30.33 "HgN/A
6:20 PM54 °FPassing clouds.3 mph77%30.33 "HgN/A
5:50 PM54 °FScattered clouds.6 mph77%30.30 "HgN/A
5:20 PM54 °FScattered clouds.6 mph72%30.30 "HgN/A
4:50 PM55 °FScattered clouds.5 mph67%30.33 "HgN/A
4:20 PM55 °FScattered clouds.7 mph67%30.33 "HgN/A
3:20 PM57 °FScattered clouds.9 mph59%30.33 "HgN/A
2:50 PM55 °FScattered clouds.8 mph63%30.33 "HgN/A
2:20 PM55 °FScattered clouds.8 mph63%30.30 "HgN/A
1:50 PM57 °FScattered clouds.9 mph63%30.30 "HgN/A
1:20 PM57 °FScattered clouds.9 mph72%30.30 "HgN/A
12:50 PM55 °FScattered clouds.9 mph77%30.30 "HgN/A
12:20 PM55 °FScattered clouds.10 mph72%30.30 "HgN/A
11:50 AM55 °FScattered clouds.10 mph72%30.30 "HgN/A
11:20 AM55 °FScattered clouds.13 mph77%30.30 "HgN/A
10:20 AM54 °FPassing clouds.8 mph82%30.30 "HgN/A
9:50 AM54 °FPassing clouds.9 mph82%30.30 "HgN/A
9:20 AM54 °FPassing clouds.8 mph82%30.27 "HgN/A
8:50 AM52 °FPassing clouds.6 mph88%30.27 "HgN/A
8:20 AM50 °FPassing clouds.6 mph88%30.27 "HgN/A
7:50 AM48 °FSunny.7 mph94%30.27 "Hg10 mi
7:20 AM50 °FClear.8 mph88%30.24 "Hg10 mi
6:50 AM48 °FClear.7 mph94%30.24 "Hg10 mi
6:20 AM50 °FPassing clouds.8 mph88%30.24 "HgN/A
5:50 AM48 °FPassing clouds.7 mph94%30.24 "HgN/A
5:20 AM48 °FClear.7 mph94%30.24 "Hg10 mi
4:50 AM50 °FClear.8 mph94%30.21 "Hg10 mi
4:20 AM50 °FClear.8 mph94%30.21 "Hg10 mi
3:50 AM50 °FClear.6 mph94%30.21 "Hg10 mi
3:20 AM50 °FClear.5 mph94%30.21 "Hg10 mi
2:50 AM50 °FClear.3 mph94%30.21 "Hg10 mi
2:20 AM50 °FClear.1 mph94%30.21 "Hg10 mi
1:50 AM48 °FPassing clouds.No wind100%30.21 "HgN/A
1:20 AM46 °FPassing clouds.3 mph100%30.21 "HgN/A
Weather by CustomWeather, © 2014

See weather overviewHow to use our weather pages